Location: Cheching
(60.0667°N, 164.2167°W)
Time: 12:27:16
(UTC+00:00)

FENGYUN 1C DEB - Pass Details

Date: 01 October 2021
Orbit: 727 x 819 km, 99.4° (Epoch: 17 October)

Event Time Altitude Azimuth Distance (km) Brightness Sun altitude
Exits shadow 12:32:44 57° 11° (NNE) 878 ? -29.8°
Drops below altitude 10° 12:36:53 10° 343° (NNW) 2,289 ? -29.5°
Sets 12:39:13 0° 341° (NNW) 3,232 ? -29.4°
